This demonstration page uses our WeatherBlox Daily Observations layout. Learn more.

Left ArrowRight Arrow

39.51506, -84.39828

Hourly Observations for June 19, 2015

Temp ( °F °C ) Dew Point ( °F °C ) Humidity (%) Winds ( mph kmh ) Pressure ( in mb ) Visibility ( mi km ) Precip ( " mm )
12:15 am 00:15 Partly Cloudy with Drizzle 73 22.5 69 20.6 89 89 N N/A 30.03 1017 7 11 N/A
12:35 am 00:35 Partly Cloudy 74 23.6 71 21.6 89 89 SW 6 9 30.03 1017 7 11 N/A
12:55 am 00:55 Partly Cloudy with Light Rain 74 23.6 71 21.7 89 89 SW 5 7 30.03 1017 5 8 N/A
1:15 am 01:15 Mostly Cloudy with Light Rain 74 23.6 71 21.7 89 89 SW 8 13 30.03 1017 5 8 N/A
1:35 am 01:35 Mostly Cloudy with Rain 74 23.6 71 21.7 89 89 SW 6 9 30.03 1017 7 11 N/A
1:55 am 01:55 Cloudy with Rain 74 23.5 71 21.6 89 89 SW 5 7 30.03 1017 7 11 N/A
2:15 am 02:15 Cloudy with Light Rain 73 22.9 70 21 89 89 SW 7 11 30.03 1017 7 11 N/A
2:35 am 02:35 Cloudy with Drizzle 72 22.3 69 20.5 90 90 SW 6 9 30.03 1017 10 16 N/A
2:55 am 02:55 Cloudy 72 22.3 69 20.3 89 89 N N/A 30.03 1017 10 16 N/A
3:15 am 03:15 Mostly Cloudy 72 22.3 69 20.3 89 89 SW 6 9 30.03 1017 10 16 N/A
3:35 am 03:35 Partly Cloudy 72 22.3 69 20.4 89 89 SW 5 7 30.03 1017 10 16 N/A
3:55 am 03:55 Mostly Cloudy 71 21.6 67 19.7 89 89 N N/A 30.00 1016 10 16 N/A
4:15 am 04:15 Partly Cloudy 71 21.6 67 19.7 89 89 N N/A 30.00 1016 10 16 N/A
4:35 am 04:35 Clear 70 21.1 67 19.3 90 90 N N/A 30.00 1016 10 16 N/A
4:55 am 04:55 Clear 69 20.8 66 19 90 90 N N/A 30.00 1016 7 11 N/A
5:15 am 05:15 Partly Cloudy 69 20.8 66 19 90 90 N N/A 30.00 1016 7 11 N/A
5:35 am 05:35 Partly Cloudy 69 20.8 66 19 90 90 N N/A 30.00 1016 10 16 N/A
5:55 am 05:55 Partly Cloudy 69 20.8 66 19 90 90 N N/A 30.00 1016 10 16 N/A
6:15 am 06:15 Mostly Cloudy 69 20.8 66 19 90 90 N N/A 30.00 1016 7 11 N/A
6:35 am 06:35 Cloudy with Mist and Fog 69 20.8 66 19 90 90 N N/A 30.03 1017 5 8 N/A
6:55 am 06:55 Cloudy 69 20.8 66 19 90 90 N N/A 30.03 1017 7 11 N/A
7:15 am 07:15 Partly Cloudy 69 20.8 66 19.1 90 90 N N/A 30.03 1017 7 11 N/A
7:35 am 07:35 Partly Cloudy 72 22.2 69 20.5 90 90 N N/A 30.03 1017 10 16 N/A
7:55 am 07:55 Partly Cloudy 73 22.6 69 20.8 90 90 N N/A 30.03 1017 10 16 N/A
8:15 am 08:15 Mostly Cloudy with Drizzle 74 23.6 71 21.6 89 89 N N/A 30.03 1017 10 16 N/A
8:35 am 08:35 Mostly Cloudy with Light Rain 74 23.6 71 21.5 88 88 N N/A 30.06 1018 7 11 N/A
8:55 am 08:55 Partly Cloudy 74 23.6 70 21 85 85 N N/A 30.06 1018 10 16 N/A
9:15 am 09:15 Mostly Cloudy 74 23.6 69 20.8 84 84 N N/A 30.06 1018 10 16 N/A
9:35 am 09:35 Mostly Cloudy 74 23.6 69 20.5 83 83 N N/A 30.06 1018 10 16 N/A
9:55 am 09:55 Cloudy with Rain 74 23.6 68 20.1 81 81 N N/A 30.06 1018 10 16 N/A
10:15 am 10:15 Cloudy with Rain 74 23.6 69 20.3 82 82 N N/A 30.06 1018 10 16 N/A
10:35 am 10:35 Cloudy with Light Rain 74 23.6 69 20.6 83 83 N N/A 30.06 1018 10 16 N/A
10:55 am 10:55 Cloudy with Light Rain 74 23.6 69 20.8 84 84 N N/A 30.06 1018 7 11 N/A
11:15 am 11:15 Cloudy with Light Rain 74 23.6 69 20.7 84 84 N N/A 30.06 1018 7 11 N/A
11:35 am 11:35 Cloudy with Light Rain 71 21.6 65 18.6 83 83 N N/A 30.06 1018 10 16 N/A
11:55 am 11:55 Cloudy with Rain 71 21.9 66 19.1 84 84 N N/A 30.06 1018 7 11 N/A
12:15 pm 12:15 Cloudy with Light Rain 72 22.2 67 19.4 84 84 N N/A 30.06 1018 7 11 N/A
12:35 pm 12:35 Cloudy with Light Rain 72 22 67 19.2 84 84 N N/A 30.06 1018 7 11 N/A
12:55 pm 12:55 Cloudy with Drizzle 72 22.3 67 19.6 85 85 SW 3 6 30.06 1018 7 11 N/A
1:15 pm 13:15 Cloudy with Drizzle 72 22.3 67 19.6 85 85 N N/A 30.06 1018 7 11 N/A
1:35 pm 13:35 Mostly Cloudy 74 23.6 70 20.9 85 85 N N/A 30.03 1017 10 16 N/A
1:55 pm 13:55 Mostly Cloudy with Drizzle 74 23.6 70 21 85 85 ENE 5 7 30.03 1017 10 16 N/A
2:15 pm 14:15 Mostly Cloudy with Light Rain 74 23.6 70 21 85 85 NE 6 9 30.00 1016 10 16 N/A
2:35 pm 14:35 Partly Cloudy 74 23.6 70 21 85 85 NE 6 9 30.00 1016 10 16 N/A
2:55 pm 14:55 Mostly Cloudy 74 23.6 69 20.8 84 84 NE 5 7 30.00 1016 10 16 N/A
3:15 pm 15:15 Mostly Cloudy 76 24.2 69 20.8 81 81 ENE 6 9 30.00 1016 10 16 N/A
3:35 pm 15:35 Partly Cloudy 77 25.1 70 20.9 78 78 ENE 3 6 30.00 1016 10 16 N/A
3:55 pm 15:55 Sunny 77 25.1 68 20 73 73 NE 6 9 29.97 1015 10 16 N/A
4:15 pm 16:15 Partly Cloudy 77 25.1 67 19.7 72 72 NE 5 7 29.97 1015 10 16 N/A
4:35 pm 16:35 Partly Cloudy 77 25.1 68 19.8 73 73 ENE 6 9 29.97 1015 10 16 N/A
4:55 pm 16:55 Partly Cloudy 79 26.1 69 20.4 71 71 NE 6 9 29.97 1015 10 16 N/A
5:15 pm 17:15 Partly Cloudy 80 26.5 69 20.3 69 69 ENE 3 6 29.97 1015 10 16 N/A
5:35 pm 17:35 Partly Cloudy 80 26.5 69 20.6 70 70 E 7 11 29.97 1015 10 16 N/A
5:55 pm 17:55 Mostly Cloudy 79 26 69 20.3 71 71 ESE 6 9 29.97 1015 10 16 N/A
6:15 pm 18:15 Cloudy 77 25.1 67 19.6 72 72 ESE 7 11 29.97 1015 10 16 N/A
6:35 pm 18:35 Mostly Cloudy 77 25.1 67 19.7 72 72 ESE 9 15 29.97 1015 10 16 N/A
6:55 pm 18:55 Partly Cloudy 77 25.1 68 20 73 73 ESE 9 15 29.97 1015 10 16 N/A
7:15 pm 19:15 Partly Cloudy 77 25.1 68 19.8 73 73 E 8 13 29.97 1015 10 16 N/A
7:35 pm 19:35 Mostly Cloudy 77 25.1 68 20.1 74 74 ESE 3 6 29.97 1015 10 16 N/A
7:55 pm 19:55 Mostly Cloudy 77 25.1 68 20.1 74 74 ESE 3 6 29.97 1015 10 16 N/A
8:15 pm 20:15 Cloudy 76 24.7 68 20.1 76 76 NE 3 6 29.97 1015 10 16 N/A
8:35 pm 20:35 Cloudy 74 23.6 67 19.7 79 79 ENE 5 7 29.97 1015 10 16 N/A
8:55 pm 20:55 Cloudy 74 23.6 68 20 80 80 NE 3 6 29.97 1015 10 16 N/A
9:15 pm 21:15 Mostly Cloudy 74 23.6 68 20.2 81 81 ENE 5 7 29.94 1014 10 16 N/A
9:35 pm 21:35 Partly Cloudy 74 23.6 69 20.3 82 82 NE 3 6 29.94 1014 10 16 N/A
9:55 pm 21:55 Partly Cloudy 74 23.6 68 20.1 81 81 ENE 3 6 29.94 1014 10 16 N/A
10:15 pm 22:15 Mostly Cloudy 74 23.6 69 20.4 82 82 ENE 6 9 29.94 1014 10 16 N/A
10:35 pm 22:35 Mostly Cloudy 74 23.6 69 20.3 82 82 ENE 5 7 29.94 1014 10 16 N/A
10:55 pm 22:55 Partly Cloudy 74 23.6 69 20.5 83 83 N N/A 29.94 1014 10 16 N/A
11:15 pm 23:15 Partly Cloudy 74 23.6 69 20.7 84 84 NE 6 9 29.94 1014 10 16 N/A
11:35 pm 23:35 Clear 74 23.6 69 20.6 83 83 NE 3 6 29.94 1014 10 16 N/A
11:55 pm 23:55 Clear 74 23.6 69 20.7 84 84 ENE 3 6 29.94 1014 10 16 N/A

Powered by AerisWeather